Regional Weather Roundup
Issued by NWS

Home | Current Version | Previous Version | Graphics & Text | Print | Product List | Glossary On
Versions: 1 2 3 4 5 6 7 8 9 10 11 12 13 14 15 16 17 18 19 20 21 22 23 24 25 26 27 28 29 30 31 32 33 34 35 36 37 38 39 40 41 42 43 44 45 46 47 48 49 50
762
ASUS43 KIND 310959
RWRIN

WEATHER ROUNDUP FOR INDIANA
NATIONAL WEATHER SERVICE INDIANAPOLIS IN
600 AM EDT TUE MAY 31 2016

NOTE: "FAIR" INDICATES FEW OR NO CLOUDS BELOW 12,000 FEET WITH NO
SIGNIFICANT WEATHER AND/OR OBSTRUCTIONS TO VISIBILITY.

* - STATION DOES NOT REPORT WEATHER SUCH AS PRECIPITATION OR FOG.

+ - STATION NOT QUALITY CONTROLLED BY THE NATIONAL WEATHER SERVICE.
    USE DATA WITH CAUTION...ESPECIALLY DEWPOINT AND RELATIVE
    HUMIDITY OBSERVATIONS.

INZ001>003-010>013-019-020-311100-
NORTHWEST INDIANA

CITY           SKY/WX    TMP DP  RH WIND       PRES   REMARKS
GARY /AIRPORT/ PTCLDY    63  63 100 E7        29.99R
KNOX *+        PTCLDY    61  52  72 CALM      29.99S
RENSSELAER +   PTCLDY    66  57  72 NE8       29.98S

$$

LMZ046-743>745-311100-
SOUTHERN LAKE MICHIGAN

STATION/POSITION TIME  TEMP    WIND        PRES    WAVE
                       AIR SEA DIR/SP/G            HT
                 (UTC) (F)     (DEG/KT/KT) (MB)    (FT)
BURNS HARBOR     0901   69     110/  7/  9 1015.6F
MICHIGAN CITY    0900   66      30/  5/  6   N/A
5NW MICH CITY    0900   63 61   60/  4/  4   N/A     0

$$

INZ004-005-014>016-021>024-311100-
NORTH CENTRAL INDIANA

CITY           SKY/WX    TMP DP  RH WIND       PRES   REMARKS
GOSHEN         CLEAR     56  53  90 CALM      30.01R
PERU/GRISSOM   CLOUDY    62  55  78 NE5       29.97S
SOUTH BEND     PTCLDY    58  55  90 NE5       30.02R

$$

INZ006>009-017-018-025>027-311100-
NORTHEAST INDIANA

CITY           SKY/WX    TMP DP  RH WIND       PRES   REMARKS
ANGOLA *+        N/A     61  54  77 CALM      30.01S
FORT WAYNE     CLOUDY    62  53  72 CALM      30.01R

$$

INZ028-029-035-036-043>045-051>053-311100-
WEST CENTRAL INDIANA

CITY           SKY/WX    TMP DP  RH WIND       PRES   REMARKS
CRAWFORDSVL +  CLOUDY    59  59 100 CALM      29.98F
GREENCASTLE +  PTCLDY    61  61 100 CALM      30.00R
LAFAYETTE      CLOUDY    60  58  92 CALM      29.97R
TERRE HAUTE    PTCLDY    63  60  90 CALM      29.98S

$$

INZ030>032-037>040-046>048-054>057-064-065-311100-
CENTRAL INDIANA

CITY           SKY/WX    TMP DP  RH WIND       PRES   REMARKS
FRANKFORT +      N/A     64  50  62 CALM      30.00S
INDIANAPOLIS   MOCLDY    66  58  75 CALM      29.97S
-EAGLE CREEK   MOCLDY    66  59  78 CALM      29.98S
KOKOMO *+      PTCLDY    63  52  67 E3        29.98S
SHELBYVILLE    CLEAR     65  58  78 S3        29.98S

$$

INZ033-034-041-042-049-050-058-059-311100-
EAST CENTRAL INDIANA

CITY           SKY/WX    TMP DP  RH WIND       PRES   REMARKS
MUNCIE         CLOUDY    65  55  70 CALM      29.99S

$$

INZ060-061-067>069-081>083-085>088-311100-
SOUTHWEST INDIANA

CITY           SKY/WX    TMP DP  RH WIND       PRES   REMARKS
EVANSVILLE     CLOUDY    64  59  83 CALM      29.98R
HUNTINGBURG *+ CLOUDY    63  59  88 CALM      29.98S

$$

INZ062-063-066-070>080-084-089>092-311100-
SOUTH CENTRAL AND SOUTHEAST INDIANA

CITY           SKY/WX    TMP DP  RH WIND       PRES   REMARKS
BLOOMINGTON    MOCLDY    63  59  87 CALM      29.99S
MADISON *+     PTCLDY    61  59  94 CALM      30.01S
SEYMOUR +      CLOUDY    63  61  94 CALM      29.98S

$$





USA.gov is the U.S. government's official web portal to all federal, state and local government web resources and services.